Theta_e
312 313 315 316 318 320 322 322 322 322 321 322 324 324 324 324 324 323 322 322 319 319 313 315 314 315 312 310 309 309 306 302 300 289 290 289 289 288 288 288 288 287 286
304 306 308 309 311 313 315 317 320 322 322 324 324 322 322 321 320 318 317 314 315 314 312 309 311 305 306 305 304 301 300 298 293 288 288 287 287 288 286 285 287 287 284
298 298 299 301 303 305 305 306 311 314 316 316 316 316 315 314 312 311 312 310 310 311 308 307 307 302 300 299 296 295 295 292 291 289 286 287 285 286 285 284 286 284 285
298 297 297 297 298 298 298 301 305 306 306 306 307 307 307 307 305 303 304 305 304 303 302 302 301 300 299 296 293 292 291 289 288 286 285 284 284 284 283 283 282 282 281
298 297 296 296 296 295 294 294 298 299 300 300 300 300 300 300 297 298 298 299 299 297 295 295 295 292 292 294 292 289 288 286 286 285 284 284 282 281 282 283 282 282 281
297 296 295 295 294 293 293 292 291 291 292 293 293 294 295 293 296 296 296 296 295 292 291 289 290 287 290 292 292 291 290 286 285 285 282 281 282 283 283 282 281 279 277
295 293 292 291 290 290 290 290 290 290 291 291 291 292 292 292 295 295 293 292 291 291 289 288 288 287 288 288 291 291 289 290 289 285 284 284 283 284 283 282 281 280 279
291 290 289 289 289 289 289 290 290 290 290 289 289 289 289 290 294 292 290 289 288 288 288 288 287 287 287 287 287 286 286 287 286 286 285 285 285 284 284 283 282 279 278
289 289 288 289 288 290 288 288 288 287 286 286 286 287 287 287 292 291 288 287 286 285 286 286 287 286 288 289 285 285 284 284 287 288 287 287 287 287 284 279 274 275 274
288 288 288 290 289 288 288 286 285 286 285 285 286 286 286 286 291 290 288 286 285 284 284 285 285 285 289 289 285 285 284 284 283 283 284 285 286 285 287 282 279 272 270
286 286 284 287 288 288 286 285 286 286 286 285 285 285 286 286 288 290 289 285 285 284 284 283 284 287 289 289 287 284 284 283 282 280 279 278 280 280 280 279 279 274 269
283 283 285 287 286 286 286 285 286 286 286 285 285 284 284 285 288 289 289 288 287 285 284 283 284 287 288 289 288 287 287 285 276 275 275 276 277 277 277 275 275 276 275
283 283 284 286 286 286 286 286 285 286 285 284 284 284 283 283 285 289 289 289 288 284 284 283 285 287 288 288 289 289 285 282 277 269 275 275 274 274 273 270 269 268 267
283 281 282 285 284 285 285 285 286 285 285 284 284 284 283 283 283 284 285 285 285 283 283 282 284 286 286 284 279 280 282 282 280 279 274 272 270 268 267 270 268 268 267
281 278 277 278 281 282 281 283 282 282 285 285 284 284 282 280 280 283 280 276 276 281 276 276 279 278 277 274 274 275 271 274 278 278 276 275 272 270 271 271 269 266 268
278 276 275 276 274 276 278 276 285 286 287 287 285 280 274 284 286 287 287 287 287 286 280 278 277 277 278 278 277 277 271 270 271 276 276 276 275 274 273 271 271 269 270
278 275 274 274 274 273 271 274 274 275 284 285 285 285 285 285 285 285 286 286 287 286 282 281 281 280 279 278 278 276 275 272 270 270 271 273 273 273 273 272 271 271 270
273 273 274 272 271 270 271 269 270 271 269 268 277 280 283 283 284 285 285 280 273 281 281 280 280 281 280 279 277 276 276 272 272 274 274 274 274 273 272 270 271 270 270
273 272 271 270 270 270 270 269 269 268 267 264 267 274 270 280 280 279 278 271 275 276 278 278 279 279 279 279 279 273 272 274 275 272 270 271 271 269 270 270 270 270 269
271 271 271 271 270 269 268 268 267 265 264 263 264 261 261 265 263 262 261 266 266 266 267 269 270 271 272 271 271 271 271 270 269 267 268 268 269 269 269 269 269 268 268
271 270 268 268 267 265 265 264 263 262 261 259 257 264 272 259 255 255 257 257 255 255 257 257 258 258 260 261 261 261 263 264 264 267 268 267 268 268 269 269 268 268 266
269 267 267 266 265 265 263 262 261 261 259 258 255 258 268 256 255 252 252 252 252 252 252 252 254 255 256 256 257 259 260 261 261 262 264 266 267 267 266 266 263 265 265
268 266 264 262 263 262 261 259 260 261 258 255 253 254 252 251 251 251 250 250 250 251 251 252 251 252 253 253 254 255 257 259 260 263 263 263 262 262 261 264 264 261 262
265 264 263 261 261 260 259 256 257 257 256 254 253 255 253 250 250 250 250 250 251 252 253 252 252 253 252 253 253 253 253 256 257 258 258 259 259 259 259 260 262 261 261
263 262 261 260 260 258 258 256 256 255 253 253 251 252 251 252 252 250 250 249 251 253 253 251 251 251 251 254 254 254 256 260 257 257 252 253 254 254 256 257 259 257 256
261 260 259 258 257 257 256 256 257 256 254 252 251 251 253 253 251 250 251 251 254 253 253 252 252 254 252 252 254 258 260 264 262 262 263 256 254 256 255 255 253 254 256
Wind_Speed
7 7 7 6 7 7 9 9 10 9 8 10 12 12 12 13 12 11 13 10 10 11 7 11 12 11 7 6 6 6 6 3 3 2 3 3 3 5 6 4 4 3 3
5 5 6 5 4 5 5 5 6 9 9 12 10 9 8 7 7 6 7 6 8 9 9 8 12 5 6 4 3 4 3 1 3 4 3 2 1 3 2 4 3 3 4
5 5 4 4 4 4 4 3 2 3 4 5 6 7 6 5 5 5 6 7 8 8 7 8 7 5 4 3 4 5 3 2 3 4 3 1 3 3 2 3 3 4 3
6 5 5 4 4 4 4 4 4 4 4 4 4 2 1 2 3 2 3 3 3 2 1 2 3 5 5 6 5 6 5 4 4 5 3 2 1 1 3 4 4 3 2
6 5 5 5 5 5 6 5 4 3 3 3 2 3 3 2 3 2 1 1 2 3 3 3 3 4 8 8 6 7 7 4 3 2 3 3 2 3 4 3 4 2 2
6 6 6 6 6 5 5 4 5 4 3 4 4 3 2 2 1 4 5 4 5 5 5 4 5 5 7 11 9 9 8 7 4 3 2 4 3 2 3 4 3 2 2
6 6 6 6 5 4 4 4 4 4 3 3 3 2 3 4 4 2 1 2 4 5 6 5 4 3 4 5 9 10 6 5 3 6 5 5 4 7 5 4 3 3 2
6 6 6 6 6 4 4 4 4 3 3 3 4 4 4 4 6 6 8 5 6 5 5 5 6 5 4 5 5 4 6 5 3 3 4 3 4 3 4 3 3 2 1
7 7 6 6 6 6 5 5 3 3 2 3 2 4 4 4 7 9 8 6 5 4 4 4 5 5 9 9 6 3 2 1 2 3 3 3 3 6 7 4 2 2 2
7 7 7 6 6 5 5 4 2 2 3 3 4 3 4 3 6 6 5 3 5 3 3 2 2 1 8 9 4 3 4 3 4 2 3 2 3 4 10 5 4 3 2
6 7 5 5 5 5 5 2 4 5 5 4 4 4 4 3 4 6 5 3 3 3 2 2 1 5 7 8 6 4 3 2 2 1 1 1 1 2 2 2 4 4 3
7 6 5 5 4 4 5 3 5 5 5 4 3 4 3 4 4 4 4 3 3 2 0 1 1 4 6 8 7 7 6 3 2 0 0 1 1 2 2 3 3 4 3
8 6 5 6 5 4 5 5 4 4 3 3 3 2 2 3 3 5 5 4 5 2 2 2 3 5 8 7 11 8 4 1 1 1 2 3 2 2 1 1 1 1 3
9 7 5 7 5 5 4 3 4 3 3 3 2 2 1 2 2 2 2 3 4 4 4 3 2 2 4 4 2 4 3 2 3 4 3 2 1 1 1 2 2 1 1
9 7 6 5 6 7 4 3 4 3 2 2 2 2 2 2 2 2 2 3 2 3 4 3 3 4 3 3 2 2 3 2 2 2 3 3 4 2 4 2 2 1 4
9 5 4 4 3 4 6 5 12 12 12 12 10 6 3 4 9 10 6 4 5 3 3 2 2 2 5 6 6 6 3 3 2 3 4 5 7 6 6 2 4 4 7
10 8 6 5 4 5 2 5 6 7 17 17 15 13 11 9 10 9 10 9 4 1 1 1 4 3 3 3 3 3 5 4 2 3 3 5 5 6 6 6 5 6 7
8 8 6 6 5 4 4 4 4 5 3 3 11 14 15 13 12 12 10 9 4 4 2 3 4 4 3 2 2 3 4 3 3 5 5 4 5 6 6 5 5 6 7
9 6 7 6 5 6 5 5 5 6 5 4 3 8 10 13 15 16 15 3 2 2 3 2 3 3 4 5 5 3 3 4 4 2 2 3 4 3 6 6 6 8 8
8 12 9 7 7 6 5 6 5 5 5 4 4 2 3 6 5 5 3 4 5 4 4 4 5 5 5 5 6 5 5 4 4 2 3 3 3 4 6 6 6 6 6
8 8 10 8 7 5 5 6 4 5 4 3 2 3 11 4 3 3 3 4 3 2 2 2 3 2 2 3 3 3 2 3 3 4 4 4 4 5 4 5 6 6 5
9 9 7 8 6 6 6 5 4 5 4 4 2 3 12 4 3 2 2 2 2 1 2 2 3 3 3 3 3 3 3 3 3 3 3 4 4 5 5 5 3 5 5
9 11 8 5 6 8 6 4 5 5 4 4 3 3 3 2 2 2 2 2 2 3 3 2 2 4 3 3 2 2 2 3 3 4 5 5 4 4 3 5 5 3 4
8 8 8 6 4 5 6 5 4 5 5 4 2 2 2 1 0 1 2 3 3 3 3 2 2 3 4 4 3 3 3 4 3 4 5 4 4 4 3 4 4 4 4
7 7 6 6 5 5 6 5 4 4 3 3 2 1 1 2 2 2 2 2 2 2 3 3 3 4 5 8 7 8 7 9 6 6 3 3 4 5 4 3 3 3 3
8 8 6 5 5 4 4 4 4 3 3 2 1 0 1 2 3 3 3 3 3 3 5 4 5 7 7 5 7 9 8 10 8 10 6 2 2 4 3 4 5 3 4
Wind_Direction
180 180 185 190 194 192 207 210 210 208 201 211 218 219 220 221 225 224 230 234 227 236 220 225 230 228 228 219 206 192 214 159 164 114 101 102 129 167 174 172 213 210 239
189 185 199 194 194 208 218 219 203 213 210 221 226 228 228 226 224 223 223 220 222 229 226 212 232 195 207 163 187 167 130 102 132 133 131 126 75 143 165 225 203 197 226
156 162 156 156 156 164 159 163 181 204 212 206 212 207 208 218 210 218 218 210 213 216 207 214 223 182 171 171 149 126 107 83 86 117 73 336 97 109 144 246 231 220 238
143 141 143 146 139 117 88 75 57 31 37 34 35 21 169 164 238 229 259 245 245 281 276 230 212 196 176 151 122 116 115 94 98 107 95 120 98 173 147 199 229 219 258
139 136 134 116 109 106 95 84 67 69 62 48 69 58 51 59 48 42 228 126 146 126 88 75 81 102 116 137 139 145 132 130 134 154 126 110 164 211 194 185 228 186 259
142 132 125 123 120 112 110 105 93 70 56 42 30 38 35 13 313 183 179 174 152 161 149 88 81 88 106 114 122 144 154 145 136 128 140 178 179 183 186 194 171 168 271
143 138 130 124 118 111 107 96 82 77 66 68 55 24 26 13 3 331 193 163 149 148 140 131 104 81 94 115 123 119 116 124 152 150 179 180 200 195 179 175 178 161 215
147 140 136 129 118 109 96 90 90 69 59 37 31 42 61 35 48 58 50 53 56 61 90 114 122 125 134 131 126 146 145 160 174 216 205 180 217 178 169 149 140 115 332
162 158 151 147 141 141 132 122 84 88 68 65 65 62 77 54 85 100 108 103 94 90 110 132 145 149 163 150 123 130 97 247 224 235 212 210 192 167 149 104 99 111 274
164 157 150 149 140 143 145 123 110 94 100 94 76 61 78 75 91 96 104 106 106 113 76 57 185 135 167 160 132 151 196 217 200 238 233 197 182 193 187 181 149 178 163
131 132 137 130 141 135 126 115 118 108 108 83 85 64 73 73 83 83 83 57 86 98 113 158 186 184 187 194 187 177 237 81 249 210 294 51 25 353 345 150 169 156 179
122 122 133 121 112 117 118 109 110 113 102 88 81 57 37 36 65 67 81 83 131 106 131 60 8 220 219 228 237 238 259 281 49 92 336 262 232 231 226 223 209 217 212
114 128 120 104 108 109 120 122 110 100 101 111 99 85 49 16 23 32 53 67 119 110 107 174 194 227 240 250 257 260 251 174 166 19 254 261 216 223 247 318 283 261 245
125 122 125 119 109 93 78 72 97 102 104 120 110 102 92 58 19 20 19 27 34 56 33 27 22 330 295 293 1 340 337 186 214 244 243 254 337 8 290 193 254 201 239
124 129 120 121 134 114 90 103 105 70 82 126 100 94 88 65 323 333 343 1 7 24 54 27 20 7 348 346 337 317 330 336 264 223 238 256 257 222 247 200 222 204 239
124 118 120 116 106 96 110 79 66 75 70 69 81 71 0 37 37 36 30 6 348 13 55 20 4 341 320 321 323 317 304 287 270 274 276 275 279 276 275 226 234 227 253
133 133 119 112 87 97 67 98 105 36 73 68 70 67 61 57 43 35 38 33 25 345 126 311 310 303 291 274 270 259 295 285 271 254 248 261 261 264 263 257 241 244 252
108 96 117 112 112 112 107 105 115 115 96 17 34 52 45 47 44 40 37 48 35 25 12 353 334 336 330 287 245 258 265 264 261 257 251 256 264 269 275 265 263 260 260
111 115 111 99 91 94 92 81 78 74 70 66 23 38 15 49 54 48 47 61 58 35 13 349 336 329 325 324 330 317 272 273 279 261 266 279 284 271 279 276 274 267 266
108 116 109 113 104 93 88 96 93 93 83 69 56 20 344 32 31 11 32 44 30 21 15 7 4 354 352 351 343 337 324 328 323 304 285 272 267 261 277 281 282 279 272
116 99 101 91 94 100 100 97 91 84 93 78 42 352 67 98 107 62 32 32 30 10 357 339 324 325 322 335 343 331 319 311 319 323 311 291 278 281 279 274 279 283 273
117 113 106 110 114 107 110 109 100 102 94 89 50 30 64 70 68 46 22 360 313 285 289 317 320 313 319 343 322 314 311 307 307 302 306 306 303 295 288 285 280 281 279
116 117 113 103 115 121 104 104 113 109 103 92 83 67 62 76 63 43 2 315 315 309 308 347 335 325 318 307 289 261 274 284 287 309 310 306 293 287 280 286 288 270 268
107 111 112 104 98 94 98 103 101 95 104 102 94 101 93 96 92 284 281 304 323 312 308 312 290 284 292 293 297 292 276 275 260 268 281 281 286 289 285 275 268 258 264
94 101 108 114 115 118 115 108 106 114 107 104 99 72 360 356 349 323 305 293 281 302 301 297 292 304 308 313 306 302 290 293 278 261 249 246 259 277 266 265 276 272 257
108 107 103 103 109 112 111 114 110 94 85 73 115 181 264 309 303 306 304 310 309 307 300 288 289 295 291 279 288 297 297 310 303 281 269 223 246 270 259 260 264 251 257